RYR1687 EIKY-EGSS

Flight info

Callsign RYR1687
Flight time N/A
Altitude 33000
Route CRK3D CRK DCT ENJEX DCT AVZAC DCT ICOSA DCT RUHUN DCT YORQI DCT CAWZE/N0423F230 P2 SIRIC
Aircraft B38M/M-SDE1FGHILORVWXY/HB1

Departure

Time N/A
Airport Kerry Airport (EIKY)

Arrival

Time 2026-04-30 17:52
Airport London Stansted Airport (EGSS)
Time Latitude Longitude Altitude Speed Heading
2026-04-30 17:39 51.96039 0.04112 8105 ft 280 kts 27°
2026-04-30 17:41 52.08248 0.15122 5977 ft 259 kts 63°
2026-04-30 17:42 52.08456 0.20468 5983 ft 238 kts 120°
2026-04-30 17:42 52.04223 0.22463 6001 ft 243 kts 206°
2026-04-30 17:43 52.01568 0.18988 5720 ft 244 kts 216°
2026-04-30 17:44 51.97717 0.13568 4312 ft 239 kts 216°
2026-04-30 17:44 51.93976 0.09270 4021 ft 203 kts 206°
2026-04-30 17:46 51.87547 0.07817 2972 ft 189 kts 176°
2026-04-30 17:47 51.82702 0.04450 2519 ft 204 kts 211°
2026-04-30 17:48 51.78508 0.02714 2424 ft 162 kts 120°
2026-04-30 17:48 51.79302 0.08081 2514 ft 173 kts 71°
2026-04-30 17:49 51.82292 0.14158 2077 ft 166 kts 51°
2026-04-30 17:50 51.85336 0.18709 1110 ft 146 kts 49°
2026-04-30 17:51 51.87497 0.21954 420 ft 133 kts 49°
2026-04-30 17:52 51.88800 0.23953 334 ft 42 kts 54°
2026-04-30 17:53 51.88909 0.24379 348 ft 0 kts 73°
2026-04-30 17:54 51.88911 0.24385 348 ft 2 kts 73°
2026-04-30 17:55 51.89057 0.24800 349 ft 19 kts 43°
2026-04-30 17:56 51.89417 0.25455 349 ft 17 kts 96°
2026-04-30 17:57 51.89216 0.25785 351 ft 11 kts 133°
2026-04-30 17:58 51.89164 0.25828 353 ft 4 kts 228°
2026-04-30 17:59 51.89147 0.25796 346 ft 0 kts 230°